TimeEST,TemperatureF,Dew PointF,Humidity,Sea Level PressureIn,VisibilityMPH,Wind Direction,Wind SpeedMPH,Gust SpeedMPH,PrecipitationIn,Events,Conditions,WindDirDegrees,DateUTC
12:53 AM,48.0,39.0,71,30.15,10.0,Calm,Calm,-,N/A,,Clear,0,2013-01-22 05:53:00
1:53 AM,48.0,37.9,68,30.15,10.0,Calm,Calm,-,N/A,,Clear,0,2013-01-22 06:53:00
2:53 AM,50.0,37.0,61,30.16,10.0,North,4.6,-,N/A,,Clear,350,2013-01-22 07:53:00
3:53 AM,48.9,34.0,56,30.17,10.0,North,8.1,-,N/A,,Clear,350,2013-01-22 08:53:00
4:53 AM,48.0,30.0,50,30.19,10.0,North,4.6,-,N/A,,Clear,360,2013-01-22 09:53:00
5:53 AM,46.0,27.0,47,30.22,10.0,North,4.6,-,N/A,,Clear,360,2013-01-22 10:53:00
6:53 AM,43.0,28.0,56,30.25,10.0,Calm,Calm,-,N/A,,Clear,0,2013-01-22 11:53:00
7:53 AM,42.1,27.0,55,30.27,10.0,Calm,Calm,-,N/A,,Clear,0,2013-01-22 12:53:00
8:53 AM,45.0,24.1,44,30.30,10.0,North,3.5,-,N/A,,Clear,360,2013-01-22 13:53:00
9:53 AM,46.9,24.1,41,30.32,10.0,North,5.8,-,N/A,,Clear,360,2013-01-22 14:53:00
10:53 AM,51.1,21.9,32,30.34,10.0,North,11.5,-,N/A,,Clear,10,2013-01-22 15:53:00
11:53 AM,55.0,19.9,25,30.33,10.0,North,10.4,-,N/A,,Clear,350,2013-01-22 16:53:00
12:53 PM,57.9,19.0,22,30.30,10.0,NNW,9.2,-,N/A,,Clear,340,2013-01-22 17:53:00
1:53 PM,60.1,19.9,21,30.27,10.0,NNE,6.9,-,N/A,,Clear,20,2013-01-22 18:53:00
2:53 PM,61.0,19.9,21,30.26,10.0,North,6.9,-,N/A,,Clear,10,2013-01-22 19:53:00
3:53 PM,62.1,21.9,21,30.26,10.0,North,6.9,-,N/A,,Clear,10,2013-01-22 20:53:00
4:53 PM,60.1,21.9,23,30.28,10.0,NNW,6.9,-,N/A,,Clear,340,2013-01-22 21:53:00
5:53 PM,57.0,21.9,26,30.29,10.0,NNW,5.8,-,N/A,,Clear,340,2013-01-22 22:53:00
6:53 PM,52.0,24.1,34,30.30,10.0,North,3.5,-,N/A,,Clear,350,2013-01-22 23:53:00
7:53 PM,44.1,26.1,49,30.30,10.0,Calm,Calm,-,N/A,,Clear,0,2013-01-23 00:53:00
8:53 PM,39.0,27.0,62,30.31,10.0,Calm,Calm,-,N/A,,Clear,0,2013-01-23 01:53:00
9:53 PM,37.0,27.0,67,30.32,10.0,Calm,Calm,-,N/A,,Clear,0,2013-01-23 02:53:00
10:53 PM,36.0,27.0,70,30.34,10.0,Calm,Calm,-,N/A,,Clear,0,2013-01-23 03:53:00
11:53 PM,34.0,26.1,73,30.35,10.0,Calm,Calm,-,N/A,,Clear,0,2013-01-23 04:53:00